TimeEDT,TemperatureF,Dew PointF,Humidity,Sea Level PressureIn,VisibilityMPH,Wind Direction,Wind SpeedMPH,Gust SpeedMPH,PrecipitationIn,Events,Conditions,WindDirDegrees,DateUTC
12:53 AM,53.1,36.0,52,30.19,10.0,Calm,Calm,-,N/A,,Clear,0,2012-03-28 04:53:00
1:53 AM,50.0,37.0,61,30.18,10.0,SSW,3.5,-,N/A,,Clear,200,2012-03-28 05:53:00
2:53 AM,52.0,36.0,54,30.16,10.0,South,5.8,-,N/A,,Clear,190,2012-03-28 06:53:00
3:53 AM,50.0,37.0,61,30.15,10.0,Calm,Calm,-,N/A,,Clear,0,2012-03-28 07:53:00
4:53 AM,50.0,37.0,61,30.13,10.0,South,4.6,-,N/A,,Clear,190,2012-03-28 08:53:00
5:53 AM,48.0,37.0,66,30.12,10.0,South,4.6,-,N/A,,Clear,180,2012-03-28 09:53:00
6:53 AM,48.9,37.9,66,30.13,10.0,South,5.8,-,N/A,,Clear,190,2012-03-28 10:53:00
7:53 AM,50.0,39.9,68,30.14,10.0,SSW,4.6,-,N/A,,Clear,210,2012-03-28 11:53:00
8:53 AM,53.1,43.0,69,30.14,10.0,SSW,5.8,-,N/A,,Clear,200,2012-03-28 12:53:00
9:53 AM,57.0,46.0,67,30.12,10.0,SSW,6.9,-,N/A,,Clear,200,2012-03-28 13:53:00
10:53 AM,61.0,51.1,70,30.10,10.0,SSW,10.4,-,N/A,,Clear,200,2012-03-28 14:53:00
11:53 AM,64.9,53.1,65,30.06,10.0,South,10.4,-,N/A,,Clear,190,2012-03-28 15:53:00
12:53 PM,66.9,54.0,63,30.03,10.0,South,10.4,16.1,N/A,,Clear,190,2012-03-28 16:53:00
1:53 PM,68.0,55.0,63,29.99,10.0,SSW,13.8,18.4,N/A,,Clear,200,2012-03-28 17:53:00
2:53 PM,70.0,57.0,63,29.95,10.0,SSW,13.8,20.7,N/A,,Clear,200,2012-03-28 18:53:00
3:53 PM,71.1,57.0,61,29.92,10.0,South,16.1,24.2,N/A,,Clear,190,2012-03-28 19:53:00
4:53 PM,73.0,57.0,57,29.89,10.0,SSW,12.7,18.4,N/A,,Clear,200,2012-03-28 20:53:00
5:53 PM,73.9,57.0,55,29.87,10.0,SSW,9.2,-,N/A,,Clear,210,2012-03-28 21:53:00
6:53 PM,73.9,55.9,53,29.87,10.0,SW,10.4,-,N/A,,Clear,220,2012-03-28 22:53:00
7:53 PM,70.0,55.9,61,29.88,10.0,WSW,6.9,-,N/A,,Clear,250,2012-03-28 23:53:00
8:53 PM,69.1,50.0,51,29.88,10.0,WSW,8.1,-,N/A,,Clear,240,2012-03-29 00:53:00
9:53 PM,71.1,48.9,45,29.89,10.0,SSW,5.8,-,N/A,,Clear,210,2012-03-29 01:53:00
10:53 PM,71.1,48.0,44,29.88,10.0,South,6.9,-,N/A,,Clear,190,2012-03-29 02:53:00
11:53 PM,66.9,48.9,52,29.88,10.0,South,5.8,-,N/A,,Clear,180,2012-03-29 03:53:00